Погода на Красной Поляне

Россия / Краснодарский край     45°03′13″N   41°06′03″E
темп.,
°C
ветер,
м/с
пор.,
м/с
влажн.,
%
обл.,
%
осадки,
мм/ч
давл.,
гПа
погр.,
м
7 мая, пт
пт700:00+12юв4771100 0.0 1013107
03:00+12ююз3484100 0.0 101363
06:00+10зюз37895 0.4 1015194
09:00+15з46625 0.4 1017489
12:00+18з69540 0.0 10171098
15:00+20зсз56534 0.0 10171317
18:00+18сз236936 0.0 1017179
21:00+13юв2276100 0.0 101912
8 мая, сб
сб800:00+12юв33815 0.0 101834
03:00+11юв45825 0.0 101767
06:00+11юв488533 0.0 1016159
09:00+18вюв4569100 0.0 1015581
12:00+22вюв335978 0.0 1013995
15:00+23в1154100 0.0 10121240
18:00+22в116791 0.0 101113
21:00+16юв478297 0.0 1011103
9 мая, вс
вс900:00+14юв478337 0.0 1009104
03:00+13юв3585100 0.0 100985
06:00+13з61289100 0.0 1009480
09:00+14ссв0188100 0.9 1010315
12:00+12з81095100 0.5 1011623
15:00+8з91493100 3.9 10171133
18:00+6з81394100 0.4 10201078
21:00+7з101494100 0.6 10221006
10 мая, пн
пн1000:00+6зсз6128913 0.1 1023696
03:00+5з7139110 0.3 1023506
06:00+6зюз5119387 0.1 1022617
09:00+9з7107894 0.6 10211147
12:00+10з8117386 1.3 10201467
15:00+10зсз9137872 1.9 10201434
18:00+8з8148423 0.2 10201083
21:00+5зюз91496100 3.4 1020896
11 мая, вт
вт1100:00+5зюз5148866 0.0 1020580
03:00+3юв349467 0.0 102077
06:00+6юв41085100 0.0 1020308
09:00+11вюв5568100 0.0 1020745
12:00+15в5555100 0.0 10191600
15:00+15в6660100 0.2 10181415
18:00+13вюв697082 0.0 1019744
21:00+9вюв41076100 0.0 1019312